{"data":{"norad_id":67105,"intl_designator":"2025-299D","name":"STARLINK-36261","alt_names":[],"object_type":"PAYLOAD","status":"ACTIVE","operator":null,"country":"US","launch_date":"2025-12-15","launch_site_code":"AFETR","launch_vehicle":null,"mission":null,"orbit_class":"UNKNOWN","rcs_meters":null,"size_class":null,"mass_kg":null,"dimensions":null,"purposes":["comms"],"wikipedia_slug":null,"has_3d_model":false,"image_url":null,"decayed_at":null,"tle_current":{"epoch":"2026-09-20T23:40:18.969024Z","epoch_age_seconds":36536,"freshness":"FRESH","line1":"1 67105U 25299D   26263.98633066  .00012535  00000+0  46419-3 0  9998","line2":"2 67105  43.0020 146.1262 0001030 277.4527  82.6207 15.27584906 42985","mean_motion":15.27584906,"eccentricity":0.000103,"inclination_deg":43.002,"raan_deg":146.1262,"arg_perigee_deg":277.4527,"mean_anomaly_deg":82.6207,"bstar":0.00046419,"rev_number":4298,"period_min":94.266445966048,"perigee_km":482.32770509525,"apogee_km":483.74110640484,"semimajor_km":6861.17140575,"source":"CELESTRAK","updated_at":"2026-09-21T09:00:36.104025Z"}}}